| time (UTC) | temp F | wind direction | speed MPH | gust MPH | rain 1hr in | rain 24hr in | rain mn in | humidity % | barometer mb |
| 20260906064504 | 73 | 355 | 0.0 | 0.0 | 0.00 | 0.41 | 0.00 | 95 | 1011.4 |
| 20260906064004 | 73 | 355 | 0.0 | 0.0 | 0.00 | 0.41 | 0.00 | 95 | 1011.5 |
| 20260906063505 | 73 | 355 | 0.0 | 0.0 | 0.00 | 0.41 | 0.00 | 95 | 1011.6 |
| 20260906063005 | 73 | 355 | 0.0 | 0.0 | 0.00 | 0.41 | 0.00 | 95 | 1011.6 |
| 20260906062504 | 73 | 355 | 0.0 | 0.0 | 0.00 | 0.41 | 0.00 | 95 | 1011.6 |
| 20260906062005 | 73 | 355 | 0.0 | 0.0 | 0.00 | 0.41 | 0.00 | 95 | 1011.6 |
| 20260906061504 | 73 | 355 | 0.0 | 2.0 | 0.00 | 0.41 | 0.00 | 95 | 1011.7 |
| 20260906061004 | 73 | 355 | 0.0 | 2.0 | 0.00 | 0.41 | 0.00 | 95 | 1011.7 |
| 20260906060504 | 73 | 355 | 0.0 | 2.0 | 0.00 | 0.41 | 0.00 | 95 | 1011.6 |
| 20260906060004 | 73 | 355 | 0.0 | 0.0 | 0.00 | 0.41 | 0.00 | 95 | 1011.7 |
| 20260906055504 | 73 | 355 | 0.0 | 3.0 | 0.00 | 0.41 | 0.00 | 95 | 1011.8 |
| 20260906055005 | 73 | 355 | 1.0 | 5.0 | 0.00 | 0.41 | 0.00 | 95 | 1011.8 |
| 20260906054504 | 73 | 355 | 2.0 | 5.0 | 0.00 | 0.41 | 0.00 | 95 | 1011.8 |
| 20260906054005 | 73 | 40 | 0.0 | 3.0 | 0.00 | 0.41 | 0.00 | 95 | 1011.8 |
| 20260906053504 | 73 | 41 | 0.0 | 3.0 | 0.00 | 0.41 | 0.00 | 95 | 1011.8 |
| 20260906053004 | 73 | 41 | 1.0 | 3.0 | 0.00 | 0.41 | 0.00 | 95 | 1011.7 |
| 20260906052505 | 73 | 39 | 0.0 | 0.0 | 0.00 | 0.41 | 0.00 | 95 | 1011.9 |
| 20260906052004 | 73 | 39 | 0.0 | 2.0 | 0.00 | 0.41 | 0.00 | 95 | 1011.9 |
| 20260906051504 | 73 | 39 | 0.0 | 2.0 | 0.00 | 0.41 | 0.00 | 95 | 1012.1 |
| 20260906051004 | 73 | 40 | 0.0 | 3.0 | 0.00 | 0.41 | 0.00 | 95 | 1012.1 |
| 20260906050504 | 73 | 40 | 0.0 | 3.0 | 0.00 | 0.41 | 0.00 | 95 | 1012.0 |
| 20260906050004 | 73 | 40 | 1.0 | 3.0 | 0.00 | 0.41 | 0.00 | 95 | 1012.0 |
| 20260906045503 | 73 | 40 | 0.0 | 3.0 | 0.00 | 0.41 | 0.00 | 95 | 1011.9 |
| 20260906045005 | 73 | 39 | 0.0 | 5.0 | 0.00 | 0.41 | 0.00 | 95 | 1011.9 |
| 20260906044504 | 73 | 39 | 2.0 | 5.0 | 0.00 | 0.41 | 0.00 | 95 | 1011.9 |
| 20260906044004 | 73 | 15 | 0.0 | 0.0 | 0.00 | 0.41 | 0.00 | 95 | 1011.9 |
| 20260906043505 | 73 | 15 | 0.0 | 0.0 | 0.00 | 0.41 | 0.00 | 95 | 1011.9 |
| 20260906043004 | 73 | 15 | 0.0 | 0.0 | 0.00 | 0.41 | 0.00 | 95 | 1011.9 |
| 20260906042504 | 73 | 15 | 0.0 | 0.0 | 0.00 | 0.41 | 0.00 | 95 | 1012.1 |
| 20260906042004 | 73 | 15 | 0.0 | 0.0 | 0.00 | 0.41 | 0.00 | 95 | 1012.2 |
| 20260906041505 | 73 | 15 | 0.0 | 0.0 | 0.00 | 0.41 | 0.00 | 95 | 1012.2 |
| 20260906041005 | 73 | 15 | 0.0 | 0.0 | 0.00 | 0.41 | 0.00 | 95 | 1012.1 |
| 20260906040504 | 73 | 15 | 0.0 | 0.0 | 0.00 | 0.41 | 0.00 | 95 | 1012.1 |
| 20260906040004 | 73 | 15 | 0.0 | 0.0 | 0.00 | 0.41 | 0.00 | 95 | 1012.1 |
| 20260906035504 | 73 | 15 | 0.0 | 0.0 | 0.00 | 0.41 | 0.41 | 95 | 1012.1 |
| 20260906035004 | 73 | 15 | 0.0 | 0.0 | 0.00 | 0.41 | 0.41 | 94 | 1012.1 |
| 20260906034504 | 73 | 15 | 0.0 | 0.0 | 0.00 | 0.41 | 0.41 | 94 | 1012.1 |
| 20260906034004 | 73 | 15 | 0.0 | 0.0 | 0.00 | 0.41 | 0.41 | 94 | 1012.1 |
| 20260906033504 | 73 | 15 | 0.0 | 0.0 | 0.00 | 0.41 | 0.41 | 94 | 1012.0 |
| 20260906033004 | 73 | 15 | 0.0 | 0.0 | 0.00 | 0.41 | 0.41 | 94 | 1012.0 |
| 20260906032505 | 74 | 15 | 0.0 | 0.0 | 0.00 | 0.41 | 0.41 | 94 | 1012.0 |
| 20260906032004 | 74 | 15 | 0.0 | 0.0 | 0.00 | 0.41 | 0.41 | 94 | 1012.0 |
| 20260906031503 | 74 | 15 | 0.0 | 0.0 | 0.00 | 0.41 | 0.41 | 94 | 1012.0 |
| 20260906031005 | 74 | 15 | 0.0 | 0.0 | 0.00 | 0.41 | 0.41 | 94 | 1012.0 |
| 20260906030503 | 74 | 15 | 0.0 | 0.0 | 0.00 | 0.41 | 0.41 | 94 | 1011.9 |
| 20260906030004 | 74 | 15 | 0.0 | 0.0 | 0.00 | 0.41 | 0.41 | 94 | 1012.0 |
| 20260906025504 | 74 | 15 | 0.0 | 0.0 | 0.00 | 0.41 | 0.41 | 94 | 1012.1 |
| 20260906025004 | 74 | 15 | 0.0 | 0.0 | 0.00 | 0.41 | 0.41 | 94 | 1012.1 |
| 20260906024504 | 74 | 5 | 0.0 | 0.0 | 0.00 | 0.41 | 0.41 | 94 | 1012.1 |
| 20260906024004 | 74 | 5 | 0.0 | 0.0 | 0.00 | 0.41 | 0.41 | 94 | 1012.0 |
| 20260906023504 | 74 | 5 | 0.0 | 0.0 | 0.00 | 0.41 | 0.41 | 94 | 1012.1 |
| 20260906023004 | 74 | 5 | 0.0 | 0.0 | 0.00 | 0.41 | 0.41 | 94 | 1012.0 |
| 20260906022504 | 74 | 5 | 0.0 | 0.0 | 0.00 | 0.41 | 0.41 | 93 | 1011.9 |
| 20260906022004 | 74 | 5 | 0.0 | 0.0 | 0.00 | 0.41 | 0.41 | 94 | 1011.9 |
| 20260906021504 | 74 | 5 | 0.0 | 0.0 | 0.00 | 0.41 | 0.41 | 93 | 1012.0 |
| 20260906021004 | 74 | 5 | 0.0 | 2.0 | 0.00 | 0.41 | 0.41 | 93 | 1012.0 |
| 20260906020504 | 75 | 5 | 0.0 | 2.0 | 0.00 | 0.41 | 0.41 | 93 | 1012.0 |
| 20260906020004 | 75 | 5 | 1.0 | 2.0 | 0.00 | 0.41 | 0.41 | 93 | 1012.0 |
| 20260906015504 | 75 | 5 | 0.0 | 0.0 | 0.00 | 0.41 | 0.41 | 93 | 1011.9 |
| 20260906015004 | 75 | 5 | 0.0 | 0.0 | 0.00 | 0.41 | 0.41 | 93 | 1012.0 |
| 20260906014504 | 75 | 5 | 0.0 | 0.0 | 0.00 | 0.41 | 0.41 | 93 | 1012.0 |
| 20260906014004 | 75 | 5 | 0.0 | 0.0 | 0.00 | 0.41 | 0.41 | 93 | 1011.9 |
| 20260906013503 | 75 | 5 | 0.0 | 0.0 | 0.00 | 0.41 | 0.41 | 93 | 1011.8 |
| 20260906013003 | 75 | 5 | 0.0 | 0.0 | 0.00 | 0.41 | 0.41 | 93 | 1011.8 |
| 20260906012504 | 75 | 5 | 0.0 | 0.0 | 0.00 | 0.41 | 0.41 | 93 | 1011.7 |
| 20260906012004 | 75 | 5 | 0.0 | 0.0 | 0.00 | 0.41 | 0.41 | 93 | 1011.6 |
| 20260906011503 | 75 | 5 | 0.0 | 0.0 | 0.00 | 0.41 | 0.41 | 93 | 1011.6 |
| 20260906011004 | 76 | 5 | 0.0 | 0.0 | 0.00 | 0.41 | 0.41 | 93 | 1011.7 |
| 20260906010504 | 76 | 5 | 0.0 | 0.0 | 0.00 | 0.41 | 0.41 | 92 | 1011.6 |
| 20260906010004 | 76 | 5 | 0.0 | 2.0 | 0.00 | 0.41 | 0.41 | 92 | 1011.4 |
| 20260906005504 | 76 | 5 | 1.0 | 2.0 | 0.00 | 0.41 | 0.41 | 92 | 1011.2 |
| 20260906005004 | 76 | 5 | 1.0 | 2.0 | 0.00 | 0.41 | 0.41 | 92 | 1011.1 |
| 20260906004505 | 76 | 5 | 0.0 | 0.0 | 0.00 | 0.41 | 0.41 | 92 | 1011.2 |
| 20260906004004 | 76 | 5 | 0.0 | 1.0 | 0.00 | 0.41 | 0.41 | 91 | 1011.1 |
| 20260906003504 | 76 | 5 | 0.0 | 2.0 | 0.00 | 0.41 | 0.41 | 91 | 1011.1 |
| 20260906003004 | 76 | 5 | 0.0 | 2.0 | 0.00 | 0.41 | 0.41 | 91 | 1011.1 |
| 20260906002504 | 76 | 5 | 0.0 | 3.0 | 0.00 | 0.41 | 0.41 | 91 | 1011.0 |
| 20260906002004 | 77 | 5 | 1.0 | 3.0 | 0.00 | 0.41 | 0.41 | 90 | 1010.9 |
| 20260906001504 | 77 | 5 | 0.0 | 0.0 | 0.00 | 0.41 | 0.41 | 90 | 1010.7 |
| 20260906001004 | 77 | 5 | 0.0 | 0.0 | 0.00 | 0.41 | 0.41 | 90 | 1010.7 |
| 20260906000504 | 77 | 5 | 0.0 | 0.0 | 0.00 | 0.41 | 0.41 | 90 | 1010.6 |
| 20260906000003 | 77 | 5 | 0.0 | 0.0 | 0.00 | 0.41 | 0.41 | 89 | 1010.5 |
| 20260905235503 | 77 | 5 | 0.0 | 0.0 | 0.00 | 0.41 | 0.41 | 89 | 1010.6 |
| 20260905235004 | 77 | 5 | 0.0 | 0.0 | 0.00 | 0.41 | 0.41 | 88 | 1010.6 |
| 20260905234504 | 77 | 5 | 0.0 | 0.0 | 0.00 | 0.41 | 0.41 | 88 | 1010.7 |
| 20260905234004 | 77 | 5 | 0.0 | 0.0 | 0.00 | 0.41 | 0.41 | 88 | 1010.8 |
| 20260905233503 | 77 | 5 | 0.0 | 0.0 | 0.00 | 0.41 | 0.41 | 88 | 1010.5 |
| 20260905233003 | 78 | 5 | 0.0 | 0.0 | 0.00 | 0.41 | 0.41 | 87 | 1010.3 |
| 20260905232504 | 78 | 5 | 0.0 | 0.0 | 0.00 | 0.41 | 0.41 | 87 | 1010.2 |
| 20260905232004 | 78 | 5 | 0.0 | 2.0 | 0.00 | 0.41 | 0.41 | 86 | 1010.1 |
| 20260905231504 | 78 | 5 | 0.0 | 3.0 | 0.00 | 0.42 | 0.41 | 85 | 1010.1 |
| 20260905231004 | 78 | 5 | 0.0 | 5.0 | 0.00 | 0.42 | 0.41 | 85 | 1010.4 |
| 20260905230503 | 78 | 0 | 2.0 | 5.0 | 0.00 | 0.42 | 0.41 | 85 | 1010.6 |
| 20260905230003 | 78 | 356 | 3.0 | 5.0 | 0.00 | 0.42 | 0.41 | 85 | 1010.8 |
| 20260905225505 | 79 | 24 | 0.0 | 3.0 | 0.00 | 0.43 | 0.41 | 85 | 1010.8 |
| 20260905225003 | 79 | 18 | 1.0 | 3.0 | 0.00 | 0.43 | 0.41 | 86 | 1010.7 |
| 20260905224505 | 79 | 5 | 0.0 | 3.0 | 0.00 | 0.43 | 0.41 | 85 | 1010.6 |
| 20260905224004 | 79 | 5 | 0.0 | 3.0 | 0.00 | 0.43 | 0.41 | 85 | 1010.5 |
| 20260905223504 | 79 | 5 | 0.0 | 3.0 | 0.00 | 0.43 | 0.41 | 85 | 1010.7 |
| 20260905223005 | 80 | 0 | 1.0 | 3.0 | 0.00 | 0.43 | 0.41 | 85 | 1010.6 |
| 20260905222503 | 80 | 252 | 0.0 | 0.0 | 0.00 | 0.43 | 0.41 | 84 | 1010.6 |
| 20260905222004 | 80 | 252 | 0.0 | 0.0 | 0.00 | 0.43 | 0.41 | 84 | 1010.6 |
| 20260905221504 | 81 | 252 | 0.0 | 0.0 | 0.00 | 0.43 | 0.41 | 82 | 1010.4 |
| 20260905221003 | 81 | 294 | 0.0 | 3.0 | 0.00 | 0.43 | 0.41 | 82 | 1010.5 |
| 20260905220504 | 81 | 294 | 0.0 | 3.0 | 0.00 | 0.44 | 0.41 | 81 | 1010.4 |
| 20260905220004 | 82 | 294 | 1.0 | 3.0 | 0.00 | 0.44 | 0.41 | 83 | 1010.4 |
| 20260905215504 | 81 | 294 | 0.0 | 0.0 | 0.00 | 0.44 | 0.41 | 83 | 1010.4 |
| 20260905215004 | 81 | 294 | 0.0 | 0.0 | 0.00 | 0.44 | 0.41 | 83 | 1010.3 |
| 20260905214503 | 81 | 294 | 0.0 | 2.0 | 0.00 | 0.44 | 0.41 | 83 | 1010.5 |
| 20260905214004 | 81 | 242 | 0.0 | 3.0 | 0.00 | 0.44 | 0.41 | 82 | 1010.5 |
| 20260905213504 | 81 | 240 | 1.0 | 3.0 | 0.00 | 0.44 | 0.41 | 82 | 1010.5 |
| 20260905213004 | 81 | 355 | 0.0 | 2.0 | 0.00 | 0.44 | 0.41 | 84 | 1010.5 |
| 20260905212504 | 81 | 238 | 0.0 | 0.0 | 0.00 | 0.44 | 0.41 | 85 | 1010.5 |
| 20260905212003 | 81 | 238 | 0.0 | 0.0 | 0.00 | 0.44 | 0.41 | 85 | 1010.5 |
| 20260905211504 | 81 | 238 | 0.0 | 3.0 | 0.00 | 0.44 | 0.41 | 85 | 1010.6 |
| 20260905211003 | 80 | 238 | 0.0 | 3.0 | 0.00 | 0.44 | 0.41 | 85 | 1010.6 |
| 20260905210503 | 80 | 238 | 1.0 | 3.0 | 0.00 | 0.44 | 0.41 | 86 | 1010.6 |
| 20260905210004 | 80 | 238 | 0.0 | 0.0 | 0.00 | 0.44 | 0.41 | 87 | 1010.7 |
| 20260905205504 | 79 | 238 | 0.0 | 0.0 | 0.00 | 0.44 | 0.41 | 89 | 1010.7 |
| 20260905205003 | 79 | 238 | 0.0 | 0.0 | 0.00 | 0.44 | 0.41 | 87 | 1010.8 |
| 20260905204503 | 79 | 238 | 0.0 | 3.0 | 0.00 | 0.44 | 0.41 | 90 | 1010.8 |
| 20260905204003 | 78 | 238 | 0.0 | 3.0 | 0.00 | 0.44 | 0.41 | 92 | 1010.7 |
| 20260905203505 | 78 | 238 | 1.0 | 3.0 | 0.00 | 0.44 | 0.41 | 94 | 1010.6 |
| 20260905203003 | 77 | 227 | 0.0 | 3.0 | 0.00 | 0.44 | 0.41 | 95 | 1010.7 |
| 20260905202503 | 76 | 227 | 2.0 | 3.0 | 0.00 | 0.44 | 0.41 | 95 | 1010.4 |
| 20260905202004 | 76 | 226 | 2.0 | 3.0 | 0.00 | 0.44 | 0.41 | 95 | 1010.4 |
| 20260905201504 | 76 | 273 | 0.0 | 0.0 | 0.00 | 0.44 | 0.41 | 95 | 1010.5 |
| 20260905201003 | 75 | 273 | 0.0 | 0.0 | 0.00 | 0.44 | 0.41 | 95 | 1010.5 |
| 20260905200503 | 75 | 5 | 0.0 | 0.0 | 0.00 | 0.44 | 0.41 | 95 | 1010.4 |
| 20260905200004 | 75 | 5 | 0.0 | 2.0 | 0.01 | 0.44 | 0.41 | 95 | 1010.6 |
| 20260905195503 | 75 | 5 | 0.0 | 3.0 | 0.01 | 0.44 | 0.41 | 95 | 1010.5 |
| 20260905195004 | 75 | 5 | 2.0 | 3.0 | 0.01 | 0.44 | 0.41 | 95 | 1010.7 |
| 20260905194504 | 75 | 5 | 1.0 | 2.0 | 0.01 | 0.44 | 0.41 | 95 | 1010.8 |
| 20260905194004 | 75 | 5 | 0.0 | 3.0 | 0.01 | 0.44 | 0.41 | 95 | 1011.0 |
| 20260905193504 | 75 | 5 | 1.0 | 5.0 | 0.03 | 0.44 | 0.41 | 95 | 1011.0 |
| 20260905193003 | 75 | 5 | 2.0 | 5.0 | 0.06 | 0.44 | 0.41 | 95 | 1011.0 |
| 20260905192503 | 75 | 0 | 1.0 | 3.0 | 0.06 | 0.44 | 0.41 | 95 | 1011.1 |
| 20260905192004 | 75 | 223 | 0.0 | 0.0 | 0.06 | 0.44 | 0.41 | 95 | 1011.0 |
| 20260905191504 | 75 | 223 | 0.0 | 0.0 | 0.06 | 0.44 | 0.41 | 95 | 1011.0 |
| 20260905191003 | 75 | 223 | 0.0 | 0.0 | 0.06 | 0.44 | 0.41 | 95 | 1011.2 |
| 20260905190503 | 75 | 223 | 0.0 | 0.0 | 0.06 | 0.44 | 0.41 | 95 | 1011.5 |
| 20260905190004 | 75 | 223 | 0.0 | 3.0 | 0.05 | 0.43 | 0.40 | 95 | 1011.6 |
| 20260905185503 | 75 | 223 | 0.0 | 3.0 | 0.05 | 0.43 | 0.40 | 95 | 1011.6 |
| 20260905185003 | 75 | 213 | 1.0 | 2.0 | 0.05 | 0.43 | 0.40 | 95 | 1011.7 |
| 20260905184503 | 75 | 213 | 0.0 | 2.0 | 0.05 | 0.43 | 0.40 | 95 | 1011.5 |
| 20260905184004 | 75 | 213 | 0.0 | 0.0 | 0.05 | 0.43 | 0.40 | 95 | 1011.3 |
| 20260905183504 | 74 | 213 | 0.0 | 0.0 | 0.03 | 0.41 | 0.38 | 95 | 1011.4 |
| 20260905182508 | 74 | 210 | 0.0 | 2.0 | 0.00 | 0.38 | 0.35 | 95 | 1011.4 |
| 20260905182009 | 74 | 205 | 1.0 | 2.0 | 0.00 | 0.38 | 0.35 | 95 | 1011.1 |
| 20260905181508 | 74 | 137 | 1.0 | 2.0 | 0.00 | 0.38 | 0.35 | 95 | 1011.2 |
| 20260905181009 | 74 | 130 | 0.0 | 5.0 | 0.00 | 0.38 | 0.35 | 95 | 1011.2 |
| 20260905180510 | 74 | 130 | 2.0 | 5.0 | 0.00 | 0.38 | 0.35 | 95 | 1011.4 |
| 20260905180008 | 74 | 117 | 1.0 | 6.0 | 0.00 | 0.38 | 0.35 | 95 | 1011.6 |
| 20260905175508 | 74 | 126 | 2.0 | 6.0 | 0.00 | 0.38 | 0.35 | 95 | 1011.5 |
| 20260905175008 | 75 | 91 | 2.0 | 3.0 | 0.01 | 0.38 | 0.35 | 95 | 1011.6 |
| 20260905174508 | 74 | 141 | 1.0 | 3.0 | 0.01 | 0.38 | 0.35 | 95 | 1011.9 |
| 20260905174008 | 74 | 121 | 1.0 | 3.0 | 0.04 | 0.38 | 0.35 | 95 | 1011.9 |
| 20260905173508 | 74 | 82 | 1.0 | 3.0 | 0.11 | 0.38 | 0.35 | 95 | 1012.0 |
| 20260905173009 | 73 | 80 | 0.0 | 0.0 | 0.13 | 0.38 | 0.35 | 95 | 1012.0 |
| 20260905172508 | 73 | 80 | 0.0 | 0.0 | 0.16 | 0.38 | 0.35 | 95 | 1011.8 |
| 20260905172008 | 73 | 80 | 0.0 | 2.0 | 0.24 | 0.38 | 0.35 | 95 | 1011.7 |
| 20260905171508 | 72 | 136 | 0.0 | 5.0 | 0.31 | 0.38 | 0.35 | 94 | 1011.9 |
| 20260905171008 | 72 | 130 | 2.0 | 5.0 | 0.35 | 0.38 | 0.35 | 94 | 1011.9 |
| 20260905170508 | 73 | 26 | 0.0 | 7.0 | 0.35 | 0.38 | 0.35 | 94 | 1012.5 |
| 20260905170008 | 73 | 14 | 3.0 | 7.0 | 0.35 | 0.38 | 0.35 | 94 | 1012.7 |
| 20260905165508 | 73 | 49 | 3.0 | 13.0 | 0.35 | 0.38 | 0.35 | 93 | 1012.9 |
| 20260905165009 | 74 | 6 | 3.0 | 13.0 | 0.34 | 0.37 | 0.34 | 93 | 1013.4 |
| 20260905164508 | 75 | 1 | 6.0 | 13.0 | 0.34 | 0.37 | 0.34 | 93 | 1013.5 |
| 20260905164009 | 76 | 346 | 2.0 | 5.0 | 0.31 | 0.34 | 0.31 | 93 | 1013.5 |
| 20260905163508 | 76 | 0 | 1.0 | 3.0 | 0.24 | 0.27 | 0.24 | 92 | 1013.3 |
| 20260905163008 | 77 | 325 | 1.0 | 3.0 | 0.22 | 0.25 | 0.22 | 91 | 1013.3 |
| 20260905162508 | 78 | 213 | 0.0 | 3.0 | 0.19 | 0.22 | 0.19 | 90 | 1013.1 |
| 20260905162008 | 79 | 36 | 2.0 | 3.0 | 0.11 | 0.14 | 0.11 | 89 | 1013.3 |
| 20260905161508 | 80 | 260 | 2.0 | 3.0 | 0.04 | 0.07 | 0.04 | 87 | 1013.1 |
| 20260905161008 | 80 | 268 | 1.0 | 3.0 | 0.00 | 0.03 | 0.00 | 85 | 1012.8 |
| 20260905160508 | 81 | 72 | 0.0 | 3.0 | 0.00 | 0.03 | 0.00 | 83 | 1012.5 |
| 20260905160008 | 81 | 336 | 1.0 | 6.0 | 0.00 | 0.03 | 0.00 | 81 | 1012.5 |
| 20260905155511 | 81 | 350 | 1.0 | 8.0 | 0.00 | 0.03 | 0.00 | 82 | 1012.1 |
| 20260905155008 | 81 | 27 | 2.0 | 8.0 | 0.00 | 0.03 | 0.00 | 81 | 1011.8 |
| 20260905154508 | 82 | 328 | 3.0 | 5.0 | 0.00 | 0.03 | 0.00 | 82 | 1011.7 |
| 20260905154008 | 82 | 35 | 3.0 | 7.0 | 0.00 | 0.03 | 0.00 | 81 | 1011.8 |
| 20260905153508 | 82 | 11 | 2.0 | 7.0 | 0.00 | 0.03 | 0.00 | 80 | 1011.8 |
| 20260905153008 | 82 | 6 | 2.0 | 8.0 | 0.00 | 0.03 | 0.00 | 79 | 1011.8 |
| 20260905152507 | 82 | 338 | 3.0 | 9.0 | 0.00 | 0.03 | 0.00 | 79 | 1011.9 |
| 20260905152008 | 82 | 1 | 3.0 | 9.0 | 0.00 | 0.03 | 0.00 | 78 | 1012.0 |
| 20260905151508 | 82 | 350 | 2.0 | 7.0 | 0.00 | 0.03 | 0.00 | 78 | 1012.2 |
| 20260905151008 | 82 | 19 | 3.0 | 7.0 | 0.00 | 0.03 | 0.00 | 78 | 1012.2 |
| 20260905150508 | 82 | 353 | 2.0 | 7.0 | 0.00 | 0.03 | 0.00 | 78 | 1012.1 |
| 20260905150008 | 83 | 0 | 3.0 | 7.0 | 0.00 | 0.03 | 0.00 | 79 | 1012.2 |
| 20260905145508 | 83 | 5 | 2.0 | 7.0 | 0.00 | 0.03 | 0.00 | 79 | 1012.1 |
| 20260905145009 | 83 | 20 | 2.0 | 8.0 | 0.00 | 0.03 | 0.00 | 79 | 1012.0 |
| 20260905144508 | 83 | 5 | 3.0 | 8.0 | 0.00 | 0.03 | 0.00 | 79 | 1012.0 |
| 20260905144008 | 83 | 16 | 2.0 | 10.0 | 0.00 | 0.03 | 0.00 | 80 | 1012.0 |
| 20260905143509 | 82 | 114 | 3.0 | 10.0 | 0.00 | 0.03 | 0.00 | 79 | 1011.9 |
| 20260905143008 | 82 | 35 | 4.0 | 10.0 | 0.00 | 0.03 | 0.00 | 80 | 1012.0 |
| 20260905142507 | 82 | 355 | 2.0 | 9.0 | 0.00 | 0.03 | 0.00 | 80 | 1012.0 |
| 20260905142008 | 82 | 16 | 3.0 | 9.0 | 0.00 | 0.03 | 0.00 | 80 | 1012.0 |
| 20260905141508 | 81 | 18 | 3.0 | 7.0 | 0.00 | 0.03 | 0.00 | 81 | 1011.9 |
| 20260905141008 | 81 | 350 | 3.0 | 8.0 | 0.00 | 0.03 | 0.00 | 82 | 1011.9 |
| 20260905140508 | 81 | 14 | 2.0 | 8.0 | 0.00 | 0.03 | 0.00 | 81 | 1011.7 |
| 20260905140008 | 81 | 1 | 2.0 | 9.0 | 0.00 | 0.03 | 0.00 | 82 | 1011.5 |
| 20260905135507 | 81 | 21 | 4.0 | 9.0 | 0.00 | 0.03 | 0.00 | 82 | 1011.7 |
| 20260905135008 | 80 | 358 | 2.0 | 8.0 | 0.00 | 0.03 | 0.00 | 83 | 1011.6 |
| 20260905134508 | 80 | 38 | 2.0 | 5.0 | 0.00 | 0.03 | 0.00 | 84 | 1011.6 |
| 20260905134009 | 80 | 41 | 1.0 | 5.0 | 0.00 | 0.03 | 0.00 | 85 | 1011.6 |
| 20260905133507 | 79 | 355 | 1.0 | 3.0 | 0.00 | 0.03 | 0.00 | 85 | 1011.6 |
| 20260905133008 | 79 | 56 | 0.0 | 3.0 | 0.00 | 0.03 | 0.00 | 87 | 1011.6 |
| 20260905132508 | 78 | 56 | 0.0 | 5.0 | 0.00 | 0.03 | 0.00 | 90 | 1011.4 |
| 20260905132008 | 78 | 46 | 2.0 | 5.0 | 0.00 | 0.03 | 0.00 | 91 | 1011.6 |
| 20260905131508 | 77 | 41 | 2.0 | 5.0 | 0.00 | 0.03 | 0.00 | 93 | 1011.6 |
| 20260905131008 | 77 | 28 | 0.0 | 2.0 | 0.00 | 0.03 | 0.00 | 95 | 1011.5 |
| 20260905130508 | 76 | 221 | 0.0 | 0.0 | 0.00 | 0.03 | 0.00 | 95 | 1011.3 |
| 20260905130008 | 76 | 221 | 0.0 | 0.0 | 0.00 | 0.03 | 0.00 | 95 | 1011.2 |
| 20260905125508 | 76 | 221 | 0.0 | 0.0 | 0.00 | 0.03 | 0.00 | 95 | 1011.2 |
| 20260905125008 | 75 | 221 | 0.0 | 0.0 | 0.00 | 0.03 | 0.00 | 95 | 1011.4 |
| 20260905124508 | 75 | 221 | 0.0 | 0.0 | 0.00 | 0.03 | 0.00 | 95 | 1011.4 |
| 20260905124008 | 74 | 221 | 0.0 | 0.0 | 0.00 | 0.03 | 0.00 | 95 | 1011.4 |
| 20260905123508 | 74 | 221 | 0.0 | 0.0 | 0.00 | 0.03 | 0.00 | 95 | 1011.5 |
| 20260905123008 | 74 | 221 | 0.0 | 0.0 | 0.00 | 0.03 | 0.00 | 95 | 1011.5 |
| 20260905122508 | 73 | 221 | 0.0 | 0.0 | 0.00 | 0.03 | 0.00 | 95 | 1011.6 |
| 20260905122008 | 73 | 221 | 0.0 | 0.0 | 0.00 | 0.03 | 0.00 | 95 | 1011.6 |
| 20260905121508 | 73 | 221 | 0.0 | 0.0 | 0.00 | 0.03 | 0.00 | 95 | 1011.6 |
| 20260905121008 | 73 | 221 | 0.0 | 0.0 | 0.00 | 0.03 | 0.00 | 95 | 1011.5 |
| 20260905120507 | 72 | 221 | 0.0 | 0.0 | 0.00 | 0.03 | 0.00 | 95 | 1011.6 |
| 20260905120007 | 72 | 221 | 0.0 | 0.0 | 0.00 | 0.03 | 0.00 | 95 | 1011.5 |
| 20260905115507 | 72 | 221 | 0.0 | 0.0 | 0.00 | 0.03 | 0.00 | 95 | 1011.4 |
| 20260905115008 | 72 | 221 | 0.0 | 0.0 | 0.00 | 0.03 | 0.00 | 95 | 1011.5 |
| 20260905114507 | 71 | 221 | 0.0 | 0.0 | 0.00 | 0.03 | 0.00 | 95 | 1011.3 |
| 20260905114007 | 71 | 221 | 0.0 | 0.0 | 0.00 | 0.03 | 0.00 | 95 | 1011.3 |
| 20260905113507 | 71 | 221 | 0.0 | 0.0 | 0.00 | 0.03 | 0.00 | 95 | 1011.3 |
| 20260905113007 | 71 | 221 | 0.0 | 0.0 | 0.00 | 0.03 | 0.00 | 95 | 1011.3 |
| 20260905112508 | 71 | 221 | 0.0 | 0.0 | 0.00 | 0.03 | 0.00 | 95 | 1011.3 |
| 20260905112007 | 71 | 221 | 0.0 | 0.0 | 0.00 | 0.03 | 0.00 | 95 | 1011.2 |
| 20260905111507 | 71 | 221 | 0.0 | 0.0 | 0.00 | 0.03 | 0.00 | 95 | 1011.2 |
| 20260905111008 | 71 | 221 | 0.0 | 0.0 | 0.00 | 0.03 | 0.00 | 95 | 1011.2 |
| 20260905110508 | 71 | 221 | 0.0 | 0.0 | 0.00 | 0.03 | 0.00 | 95 | 1011.1 |
| 20260905110008 | 71 | 221 | 0.0 | 0.0 | 0.00 | 0.03 | 0.00 | 95 | 1011.2 |
| 20260905105507 | 71 | 221 | 0.0 | 0.0 | 0.00 | 0.03 | 0.00 | 95 | 1011.2 |
| 20260905105008 | 71 | 221 | 0.0 | 0.0 | 0.00 | 0.03 | 0.00 | 95 | 1011.1 |
| 20260905104507 | 71 | 221 | 0.0 | 0.0 | 0.00 | 0.03 | 0.00 | 95 | 1011.0 |
| 20260905104008 | 71 | 221 | 0.0 | 0.0 | 0.00 | 0.03 | 0.00 | 95 | 1011.0 |
| 20260905103507 | 71 | 221 | 0.0 | 0.0 | 0.00 | 0.03 | 0.00 | 95 | 1011.0 |
| 20260905103008 | 71 | 221 | 0.0 | 0.0 | 0.00 | 0.03 | 0.00 | 95 | 1010.9 |
| 20260905102509 | 71 | 221 | 0.0 | 0.0 | 0.00 | 0.03 | 0.00 | 95 | 1010.9 |
| 20260905102007 | 71 | 221 | 0.0 | 0.0 | 0.00 | 0.03 | 0.00 | 95 | 1010.9 |
| 20260905101508 | 71 | 221 | 0.0 | 0.0 | 0.00 | 0.03 | 0.00 | 95 | 1010.8 |
| 20260905101007 | 71 | 221 | 0.0 | 0.0 | 0.00 | 0.03 | 0.00 | 95 | 1010.6 |
| 20260905100508 | 71 | 221 | 0.0 | 0.0 | 0.00 | 0.03 | 0.00 | 95 | 1010.7 |
| 20260905100007 | 71 | 221 | 0.0 | 0.0 | 0.00 | 0.03 | 0.00 | 95 | 1010.7 |
| 20260905095507 | 71 | 221 | 0.0 | 0.0 | 0.00 | 0.03 | 0.00 | 95 | 1010.6 |
| 20260905095008 | 71 | 221 | 0.0 | 0.0 | 0.00 | 0.03 | 0.00 | 95 | 1010.7 |
| 20260905094508 | 71 | 221 | 0.0 | 0.0 | 0.00 | 0.03 | 0.00 | 95 | 1010.7 |
| 20260905094010 | 71 | 221 | 0.0 | 0.0 | 0.00 | 0.03 | 0.00 | 95 | 1010.5 |
| 20260905093507 | 71 | 221 | 0.0 | 0.0 | 0.00 | 0.03 | 0.00 | 95 | 1010.5 |
| 20260905093007 | 71 | 221 | 0.0 | 0.0 | 0.00 | 0.03 | 0.00 | 95 | 1010.5 |
| 20260905092508 | 71 | 221 | 0.0 | 0.0 | 0.00 | 0.03 | 0.00 | 95 | 1010.5 |
| 20260905092008 | 71 | 221 | 0.0 | 0.0 | 0.00 | 0.03 | 0.00 | 95 | 1010.5 |
| 20260905091508 | 71 | 221 | 0.0 | 0.0 | 0.00 | 0.03 | 0.00 | 95 | 1010.3 |
| 20260905091008 | 71 | 221 | 0.0 | 0.0 | 0.00 | 0.03 | 0.00 | 95 | 1010.2 |
| 20260905090508 | 71 | 221 | 0.0 | 0.0 | 0.00 | 0.03 | 0.00 | 95 | 1010.3 |
| 20260905090008 | 71 | 221 | 0.0 | 0.0 | 0.00 | 0.03 | 0.00 | 95 | 1010.3 |
| 20260905085507 | 71 | 221 | 0.0 | 0.0 | 0.00 | 0.03 | 0.00 | 95 | 1010.3 |
| 20260905085007 | 71 | 221 | 0.0 | 0.0 | 0.00 | 0.03 | 0.00 | 95 | 1010.3 |
| 20260905084507 | 71 | 221 | 0.0 | 0.0 | 0.00 | 0.03 | 0.00 | 95 | 1010.4 |
| 20260905084007 | 71 | 221 | 0.0 | 0.0 | 0.00 | 0.03 | 0.00 | 95 | 1010.4 |
| 20260905083507 | 71 | 221 | 0.0 | 0.0 | 0.00 | 0.03 | 0.00 | 95 | 1010.4 |
| 20260905083008 | 71 | 221 | 0.0 | 0.0 | 0.00 | 0.03 | 0.00 | 95 | 1010.5 |
| 20260905082507 | 71 | 221 | 0.0 | 0.0 | 0.00 | 0.03 | 0.00 | 95 | 1010.5 |
| 20260905082008 | 71 | 221 | 0.0 | 0.0 | 0.00 | 0.03 | 0.00 | 95 | 1010.5 |
| 20260905081507 | 71 | 221 | 0.0 | 0.0 | 0.00 | 0.03 | 0.00 | 95 | 1010.5 |
| 20260905081007 | 71 | 221 | 0.0 | 0.0 | 0.00 | 0.03 | 0.00 | 95 | 1010.6 |
| 20260905080507 | 71 | 221 | 0.0 | 0.0 | 0.00 | 0.03 | 0.00 | 95 | 1010.8 |
| 20260905080007 | 72 | 221 | 0.0 | 0.0 | 0.00 | 0.03 | 0.00 | 95 | 1010.8 |
| 20260905075507 | 72 | 221 | 0.0 | 0.0 | 0.00 | 0.03 | 0.00 | 95 | 1010.7 |
| 20260905075007 | 72 | 221 | 0.0 | 0.0 | 0.00 | 0.03 | 0.00 | 95 | 1010.7 |
| 20260905074507 | 72 | 221 | 0.0 | 0.0 | 0.00 | 0.03 | 0.00 | 95 | 1010.9 |
| 20260905074007 | 72 | 221 | 0.0 | 0.0 | 0.00 | 0.03 | 0.00 | 95 | 1010.9 |
| 20260905073507 | 72 | 221 | 0.0 | 0.0 | 0.00 | 0.03 | 0.00 | 95 | 1010.9 |
| 20260905073007 | 72 | 221 | 0.0 | 0.0 | 0.00 | 0.03 | 0.00 | 95 | 1010.9 |
| 20260905072507 | 72 | 221 | 0.0 | 0.0 | 0.00 | 0.03 | 0.00 | 95 | 1011.0 |
| 20260905072007 | 72 | 221 | 0.0 | 0.0 | 0.00 | 0.03 | 0.00 | 95 | 1011.1 |
| 20260905071508 | 72 | 221 | 0.0 | 0.0 | 0.00 | 0.03 | 0.00 | 95 | 1011.1 |
| 20260905071007 | 72 | 221 | 0.0 | 0.0 | 0.00 | 0.03 | 0.00 | 95 | 1011.2 |
| 20260905070506 | 72 | 221 | 0.0 | 0.0 | 0.00 | 0.03 | 0.00 | 95 | 1011.2 |
| 20260905070007 | 72 | 221 | 0.0 | 0.0 | 0.00 | 0.03 | 0.00 | 95 | 1011.2 |
| 20260905065507 | 72 | 221 | 0.0 | 0.0 | 0.00 | 0.03 | 0.00 | 95 | 1011.2 |
| 20260905065007 | 72 | 221 | 0.0 | 0.0 | 0.00 | 0.03 | 0.00 | 95 | 1011.4 |